カタログに戻る

FENGYUN 1C DEB

運用中SSO
NORAD 31051·DEBRIS·🇨🇳 China

打ち上げ May 10, 1999 から Taiyuan Satellite Launch Center

Loading…

次のパス (今後24時間)

TLE

経年Source: Space-Track

元期: Sep 9, 2026, 07:28 UTC

1 31051U 99025BEV 26252.31144469  .00000151  00000-0  12210-3 0  9990
2 31051  98.7906 279.0789 0053800  99.8911 260.8335 14.03178468676138

AllMySatでFENGYUN 1C DEBをリアルタイム追跡

Download on the App Store